Location: ???? ?????
(30.0052°N, 31.2891°E)
Time: 07:37:34
(UTC+00:00)

SEDSat Delta rocket - Pass Details

Date: 09 October 2022
Orbit: 532 x 995 km, 31.4° (Epoch: 04 December)

Event Time Altitude Azimuth Distance (km) Brightness Sun altitude
Rises 16:53:15 0° 279° (W) 3,170 8.4 -18.6°
Reaches altitude 10° 16:55:42 10° 271° (W) 2,321 7.2 -19.1°
Maximum altitude 17:00:52 40° 204° (SSW) 1,236 4.7 -20.3°
Enters shadow 17:04:18 22° 148° (SSE) 1,860 5.1 -21.0°
